Date String (YYYY-MM-DD hh:mm:ss) UTC,Instrument flags,Ambient pressure (hPa),Sample flow (lpm),Bypass flow (lpm),Sample temperature (°C),Ambient temperature (°C),ASC tube jacket temperature (°C),LED temperature (°C),Box temperature (°C),Sample RH (%),Span deviation,Mass concentration (μg/m³),Mass concentration (μg/m³),Mass concentration (μg/m³)
DateTimeUTC,F1_M11,P_M11,Q1_M11,Q2_M11,T1_M11,T2_M11,T3_M11,T4_M11,T5_M11,U1_M11,ZSPAN_M11,X0_M11,X2_M11,X1_M11
2022-12-03 23:00:00,,0827.4,5.00,0.00,24.9,23.7,00.0,33.8,26.8,12.9,0000.0,0004.01,0000.97,0000.55
2022-12-03 23:01:00,,0827.4,5.00,0.00,24.9,23.7,00.0,33.8,26.8,12.9,0000.0,0003.86,0000.90,0000.53
2022-12-03 23:02:00,,0827.4,4.99,0.00,24.9,23.7,00.0,33.8,26.9,12.7,0000.0,0003.94,0000.92,0000.53
2022-12-03 23:03:00,,0827.4,5.00,0.00,24.9,23.7,00.0,33.8,26.9,12.8,0000.0,0003.86,0000.91,0000.52
2022-12-03 23:04:00,,0827.3,5.00,0.00,24.9,23.7,00.0,33.8,26.9,12.8,0000.0,0003.13,0000.82,0000.48
2022-12-03 23:05:00,,0827.2,5.01,0.00,24.9,23.7,00.0,33.8,26.9,12.7,0000.0,0003.02,0000.77,0000.46
2022-12-03 23:06:00,,0827.2,5.00,0.00,24.9,23.7,00.0,33.8,26.8,12.7,0000.0,0002.95,0000.73,0000.46
2022-12-03 23:07:00,,0827.2,5.00,0.00,24.9,23.7,00.0,33.8,26.9,12.7,0000.0,0002.22,0000.73,0000.44
2022-12-03 23:08:00,,0827.2,5.01,0.00,25.0,23.7,00.0,33.8,26.9,12.7,0000.0,0001.66,0000.72,0000.43
2022-12-03 23:09:00,,0827.2,5.00,0.00,24.9,23.7,00.0,33.8,26.8,12.9,0000.0,0001.47,0000.66,0000.42
2022-12-03 23:10:00,,0827.2,5.01,0.00,24.9,23.7,00.0,33.8,26.8,12.7,0000.0,0001.46,0000.65,0000.42
2022-12-03 23:11:00,,0827.1,4.99,0.00,25.0,23.6,00.0,33.8,26.8,12.5,0000.0,0002.20,0000.74,0000.47
2022-12-03 23:12:00,,0827.1,4.99,0.00,25.0,23.7,00.0,33.8,26.9,12.4,0000.0,0002.41,0000.86,0000.53
2022-12-03 23:13:00,,0827.2,4.99,0.00,25.0,23.7,00.0,33.8,26.8,12.2,0000.0,0002.81,0001.07,0000.66
2022-12-03 23:14:00,,0827.2,5.00,0.00,24.9,23.7,00.0,33.8,26.8,12.3,0000.0,0003.09,0001.23,0000.74
2022-12-03 23:15:00,,0827.3,5.01,0.00,24.9,23.7,00.0,33.8,26.8,12.3,0000.0,0003.50,0001.41,0000.84
2022-12-03 23:16:00,,0827.2,5.01,0.00,24.9,23.7,00.0,33.8,26.8,12.3,0000.0,0004.13,0001.62,0000.96
2022-12-03 23:17:00,,0827.3,4.99,0.00,24.9,23.7,00.0,33.8,26.8,12.4,0000.0,0004.93,0001.75,0001.04
2022-12-03 23:18:00,,0827.2,4.99,0.00,25.0,23.7,00.0,33.8,26.9,12.4,0000.0,0005.08,0001.80,0001.10
2022-12-03 23:19:00,,0827.2,4.99,0.00,25.0,23.8,00.0,33.8,26.8,12.4,0000.0,0005.10,0001.84,0001.16
2022-12-03 23:20:00,,0827.2,5.01,0.00,25.0,23.8,00.0,33.8,26.8,12.4,0000.0,0005.14,0001.89,0001.22
2022-12-03 23:21:00,,0827.1,5.01,0.00,25.0,23.8,00.0,33.8,26.9,12.3,0000.0,0005.29,0001.97,0001.29
2022-12-03 23:22:00,,0827.2,5.00,0.00,25.0,23.8,00.0,33.9,26.9,12.2,0000.0,0005.14,0002.05,0001.35
2022-12-03 23:23:00,,0827.2,4.99,0.00,25.0,23.8,00.0,33.9,26.9,12.2,0000.0,0005.37,0002.13,0001.42
2022-12-03 23:24:00,,0827.2,4.99,0.00,25.0,23.8,00.0,33.9,26.9,12.3,0000.0,0005.32,0002.09,0001.41
2022-12-03 23:25:00,,0827.2,4.99,0.00,25.0,23.8,00.0,33.9,26.9,12.4,0000.0,0005.19,0001.96,0001.33
2022-12-03 23:26:00,,0827.0,5.00,0.00,25.0,23.7,00.0,33.9,26.9,12.4,0000.0,0006.01,0001.90,0001.28
2022-12-03 23:27:00,,0827.0,5.00,0.00,25.0,23.7,00.0,33.9,26.8,12.5,0000.0,0005.48,0001.73,0001.19
2022-12-03 23:28:00,,0827.2,5.00,0.00,24.9,23.6,00.0,33.9,26.8,12.5,0000.0,0005.26,0001.59,0001.11
2022-12-03 23:29:00,,0827.1,5.00,0.00,24.9,23.6,00.0,33.9,26.8,12.4,0000.0,0005.94,0001.60,0001.08
2022-12-03 23:30:00,,0827.2,5.00,0.00,24.9,23.7,00.0,33.9,26.8,12.4,0000.0,0006.08,0001.62,0001.06
2022-12-03 23:31:00,,0827.1,5.00,0.00,24.9,23.7,00.0,33.9,26.8,12.4,0000.0,0006.29,0001.67,0001.05
2022-12-03 23:32:00,,0827.1,5.01,0.00,24.9,23.7,00.0,33.9,26.8,12.3,0000.0,0006.37,0001.67,0001.04
2022-12-03 23:33:00,,0827.3,5.00,0.00,24.9,23.7,00.0,33.9,26.8,12.4,0000.0,0006.49,0001.63,0001.02
2022-12-03 23:34:00,,0827.1,5.00,0.00,24.9,23.7,00.0,33.9,26.8,12.4,0000.0,0006.99,0001.53,0000.97
2022-12-03 23:35:00,,0827.1,5.00,0.00,24.9,23.7,00.0,33.9,26.8,12.4,0000.0,0006.86,0001.42,0000.89
2022-12-03 23:36:00,,0827.2,5.00,0.00,24.9,23.7,00.0,33.9,26.8,12.3,0000.0,0007.04,0001.58,0000.97
2022-12-03 23:37:00,,0827.2,5.00,0.00,24.9,23.7,00.0,33.9,26.8,12.5,0000.0,0006.01,0001.59,0000.99
2022-12-03 23:38:00,,0827.2,4.99,0.00,24.9,23.7,00.0,33.9,26.8,12.3,0000.0,0006.34,0001.76,0001.10
2022-12-03 23:39:00,,0827.2,5.00,0.00,24.9,23.7,00.0,33.9,26.8,12.4,0000.0,0006.55,0001.91,0001.18
2022-12-03 23:40:00,,0827.2,4.99,0.00,24.9,23.7,00.0,33.9,26.8,12.2,0000.0,0006.03,0002.02,0001.28
2022-12-03 23:41:00,,0827.2,4.99,0.00,24.9,23.6,00.0,33.8,26.8,12.3,0000.0,0006.46,0002.16,0001.41
2022-12-03 23:42:00,,0827.3,5.00,0.00,24.9,23.6,00.0,33.8,26.7,12.4,0000.0,0006.51,0002.19,0001.46
2022-12-03 23:43:00,,0827.4,5.00,0.00,24.9,23.6,00.0,33.8,26.7,12.3,0000.0,0007.00,0002.28,0001.51
2022-12-03 23:44:00,,0827.4,5.00,0.00,24.9,23.7,00.0,33.8,26.7,12.2,0000.0,0007.43,0002.42,0001.62
2022-12-03 23:45:00,,0827.4,5.01,0.00,24.9,23.6,00.0,33.8,26.7,12.1,0000.0,0008.69,0002.75,0001.81
2022-12-03 23:46:00,,0827.5,5.00,0.00,24.9,23.6,00.0,33.8,26.7,11.9,0000.0,0009.06,0003.07,0002.08
2022-12-03 23:47:00,,0827.5,5.00,0.00,24.9,23.6,00.0,33.8,26.7,11.8,0000.0,0010.49,0003.31,0002.37
2022-12-03 23:48:00,,0827.5,4.99,0.00,24.9,23.6,00.0,33.8,26.7,11.6,0000.0,0011.82,0003.59,0002.75
2022-12-03 23:49:00,,0827.5,4.99,0.00,24.9,23.5,00.0,33.8,26.7,11.4,0000.0,0012.89,0003.82,0003.07
2022-12-03 23:50:00,,0827.4,5.01,0.00,24.8,23.3,00.0,33.8,26.7,11.4,0000.0,0014.03,0004.17,0003.34
2022-12-03 23:51:00,,0827.4,5.00,0.00,24.8,23.3,00.0,33.8,26.6,11.3,0000.0,0015.98,0004.47,0003.53
2022-12-03 23:52:00,,0827.5,5.00,0.00,24.8,23.2,00.0,33.8,26.6,11.3,0000.0,0016.91,0004.69,0003.69
2022-12-03 23:53:00,,0827.6,4.99,0.00,24.8,23.2,00.0,33.8,26.6,11.4,0000.0,0018.56,0004.97,0003.89
2022-12-03 23:54:00,,0827.8,4.99,0.00,24.7,23.2,00.0,33.8,26.6,11.4,0000.0,0019.12,0005.21,0004.08
2022-12-03 23:55:00,,0827.7,5.01,0.00,24.7,23.2,00.0,33.7,26.6,11.4,0000.0,0019.37,0005.39,0004.22
2022-12-03 23:56:00,,0827.8,5.01,0.00,24.7,23.2,00.0,33.7,26.5,11.5,0000.0,0018.79,0005.47,0004.31
2022-12-03 23:57:00,,0827.9,5.01,0.00,24.7,23.2,00.0,33.7,26.5,11.6,0000.0,0019.27,0005.57,0004.34
2022-12-03 23:58:00,,0827.9,5.00,0.00,24.7,23.2,00.0,33.7,26.5,11.6,0000.0,0018.61,0005.55,0004.34
2022-12-03 23:59:00,,0827.9,5.00,0.00,24.7,23.1,00.0,33.7,26.5,11.6,0000.0,0017.41,0005.48,0004.30
